Flag for Mexico Weather past 2 weeks in Cancún, Quintana Roo, Mexico

Now
59 °F

Clear.


Feels Like: 59 °F
Forecast: 68 / 78 °F
Wind: No wind

Location: Cancun International Airport

Current Time: Jan 30, 2015 at 5:56:18 AM

Latest Report: Jan 30, 2015 at 4:46 AM


Visibility: 7 mi

Pressure: 30.13 "Hg

Humidity: 88%

Dew point: 55 °F

Location of CancúnLocation

Historic Weather in Cancún — Graph

°F

Cancún temperature yesterday

Maximum temperature yesterday: 75 °F (at 9:45 AM)
Minimum temperature yesterday: 59 °F (at 12:50 AM)
Average temperature yesterday: 69 °F

Past Weeks' High & Low Weather Summary

 TemperatureHumidityPressure
High86 °F (Jan 23, 12:46 PM)100% (Jan 15, 4:41 AM)30.20 "Hg (Jan 15, 4:41 AM)
Low54 °F (Jan 27, 5:48 AM)48% (Jan 28, 12:44 PM)29.91 "Hg (Jan 24, 2:48 AM)
Average71 °F83%30.06 "Hg
* Reported Jan 15 4:41 AM — Jan 30 4:46 AM, Cancún, Weather by CustomWeather, © 2014

Note: Actual official high and low records may vary slightly from our data, if they occured in-between our weather recording intervals... More about our weather records

Advertising

Cancún weather history for previous 24 hours

 ConditionsComfort  
Time TempWeatherWind HumidityBarometerVisibility
4:46 AM
Jan 30
59 °FClear.No wind88%30.13 "Hg7 mi
3:47 AM59 °FClear.No wind94%30.12 "Hg7 mi
2:48 AM59 °FClear.No wind94%30.11 "Hg7 mi
12:45 AM61 °FPassing clouds.6 mph88%30.15 "Hg7 mi
11:46 PM
Jan 29
61 °FPassing clouds.No wind94%30.14 "Hg7 mi
10:47 PM63 °FPassing clouds.6 mph88%30.16 "Hg7 mi
9:48 PM63 °FPassing clouds.6 mph88%30.16 "Hg7 mi
7:46 PM64 °FPassing clouds.3 mph88%30.14 "Hg7 mi
6:45 PM66 °FPassing clouds.No wind83%30.13 "Hg7 mi
4:49 PM73 °FScattered clouds.5 mph53%30.12 "Hg7 mi
2:53 PM73 °FPartly sunny.7 mph57%30.10 "Hg7 mi
1:43 PM75 °FPartly sunny.9 mph54%30.13 "Hg7 mi
11:45 AM73 °FPartly sunny.12 mph65%30.15 "Hg7 mi
10:44 AM75 °FPartly sunny.10 mph61%30.20 "Hg7 mi
9:45 AM75 °FBroken clouds.5 mph57%30.20 "Hg7 mi
8:42 AM73 °FPartly sunny.10 mph57%30.16 "Hg7 mi
7:48 AM73 °FScattered clouds.6 mph61%30.16 "Hg7 mi
6:42 AM68 °FScattered clouds.3 mph69%30.14 "Hg7 mi
5:47 AM68 °FPassing clouds.2 mph69%30.10 "Hg7 mi
Weather by CustomWeather, © 2014

See weather overviewHow to use our weather pages